Powrót do katalogu

CZ-6A DEB

AktywnyPO
NORAD 54553·DEBRIS·🇨🇳 China

Wystrzelony Nov 11, 2022 z Taiyuan Satellite Launch Center

Loading…

Następne Przeloty (najbliższe 24 godziny)

TLE

ŚwieżeSource: Space-Track

Epoka: Sep 13, 2026, 18:37 UTC

1 54553U 22151LD  26256.77632702  .00052341  00000-0  30671-2 0  9992
2 54553  98.6363 351.3210 0027242 299.6733  60.1782 15.11281246132810

Śledź CZ-6A DEB w czasie rzeczywistym z AllMySat

Download on the App Store